| time (UTC) | temp F | wind direction | speed knots | gust knots | rain 1hr in | rain 24hr in | rain mn in | humidity % | barometer mb |
| 20260505101945 | 54 | 147 | 4.3 | 7.0 | 0.00 | 0.00 | 0.00 | 89 | 1008.0 |
| 20260505101445 | 54 | 148 | 4.3 | 5.2 | 0.00 | 0.00 | 0.00 | 90 | 1008.0 |
| 20260505100945 | 54 | 225 | 3.5 | 7.8 | 0.00 | 0.00 | 0.00 | 90 | 1009.0 |
| 20260505100445 | 54 | 189 | 3.5 | 7.0 | 0.00 | 0.00 | 0.00 | 90 | 1009.0 |
| 20260505095945 | 54 | 139 | 4.3 | 7.0 | 0.00 | 0.00 | 0.00 | 90 | 1009.0 |
| 20260505095446 | 54 | 171 | 3.5 | 8.7 | 0.00 | 0.00 | 0.00 | 90 | 1009.0 |
| 20260505094944 | 54 | 226 | 3.5 | 5.2 | 0.00 | 0.00 | 0.00 | 90 | 1009.0 |
| 20260505094445 | 54 | 97 | 5.2 | 7.8 | 0.00 | 0.00 | 0.00 | 90 | 1009.0 |
| 20260505093944 | 54 | 165 | 3.5 | 7.8 | 0.00 | 0.00 | 0.00 | 90 | 1009.0 |
| 20260505093445 | 54 | 174 | 3.5 | 7.8 | 0.00 | 0.00 | 0.00 | 90 | 1009.0 |
| 20260505092945 | 54 | 125 | 5.2 | 11.3 | 0.00 | 0.00 | 0.00 | 90 | 1009.0 |
| 20260505092445 | 54 | 144 | 5.2 | 7.8 | 0.00 | 0.00 | 0.00 | 91 | 1010.0 |
| 20260505091945 | 54 | 191 | 2.6 | 9.6 | 0.00 | 0.00 | 0.00 | 91 | 1010.0 |
| 20260505091445 | 54 | 102 | 2.6 | 9.6 | 0.00 | 0.00 | 0.00 | 91 | 1010.0 |
| 20260505090945 | 54 | 177 | 2.6 | 7.8 | 0.00 | 0.00 | 0.00 | 91 | 1010.0 |
| 20260505090445 | 54 | 127 | 2.6 | 7.8 | 0.00 | 0.00 | 0.00 | 91 | 1010.0 |
| 20260505085944 | 54 | 179 | 1.7 | 4.3 | 0.00 | 0.00 | 0.00 | 92 | 1010.0 |
| 20260505085445 | 54 | 120 | 3.5 | 7.0 | 0.00 | 0.00 | 0.00 | 92 | 1010.0 |
| 20260505084945 | 53 | 143 | 0.9 | 9.6 | 0.00 | 0.00 | 0.00 | 92 | 1011.0 |
| 20260505084444 | 53 | 231 | 5.2 | 9.6 | 0.00 | 0.00 | 0.00 | 92 | 1011.0 |
| 20260505083945 | 53 | 33 | 3.5 | 8.7 | 0.00 | 0.00 | 0.00 | 92 | 1011.0 |
| 20260505083444 | 53 | 141 | 5.2 | 8.7 | 0.00 | 0.00 | 0.00 | 92 | 1011.0 |
| 20260505082945 | 53 | 165 | 3.5 | 7.0 | 0.00 | 0.00 | 0.00 | 92 | 1011.0 |
| 20260505082445 | 53 | 206 | 3.5 | 7.0 | 0.00 | 0.00 | 0.00 | 92 | 1012.0 |
| 20260505081944 | 53 | 156 | 3.5 | 7.0 | 0.00 | 0.00 | 0.00 | 92 | 1012.0 |
| 20260505081444 | 53 | 203 | 4.3 | 5.2 | 0.00 | 0.00 | 0.00 | 92 | 1012.0 |
| 20260505080944 | 53 | 232 | 3.5 | 5.2 | 0.00 | 0.00 | 0.00 | 92 | 1012.0 |
| 20260505080444 | 53 | 213 | 3.5 | 7.0 | 0.00 | 0.00 | 0.00 | 92 | 1012.0 |
| 20260505075947 | 53 | 160 | 4.3 | 6.1 | 0.00 | 0.00 | 0.00 | 92 | 1012.0 |
| 20260505075444 | 53 | 210 | 5.2 | 7.0 | 0.00 | 0.00 | 0.00 | 92 | 1012.0 |
| 20260505074945 | 53 | 197 | 4.3 | 7.0 | 0.00 | 0.00 | 0.00 | 92 | 1013.0 |
| 20260505074444 | 53 | 186 | 4.3 | 7.0 | 0.00 | 0.00 | 0.00 | 92 | 1013.0 |
| 20260505073949 | 53 | 146 | 4.3 | 7.0 | 0.00 | 0.00 | 0.00 | 91 | 1013.0 |
| 20260505073444 | 53 | 150 | 3.5 | 8.7 | 0.00 | 0.00 | 0.00 | 91 | 1013.0 |
| 20260505072945 | 53 | 171 | 4.3 | 7.0 | 0.00 | 0.00 | 0.00 | 91 | 1013.0 |
| 20260505072444 | 53 | 220 | 3.5 | 8.7 | 0.00 | 0.00 | 0.00 | 91 | 1013.0 |
| 20260505071945 | 54 | 169 | 5.2 | 8.7 | 0.00 | 0.00 | 0.00 | 91 | 1013.0 |
| 20260505071444 | 54 | 210 | 5.2 | 7.8 | 0.00 | 0.00 | 0.00 | 90 | 1014.0 |
| 20260505070945 | 54 | 153 | 3.5 | 7.8 | 0.00 | 0.00 | 0.00 | 90 | 1014.0 |
| 20260505070444 | 54 | 199 | 5.2 | 7.0 | 0.00 | 0.00 | 0.00 | 90 | 1014.0 |
| 20260505065945 | 54 | 252 | 4.3 | 7.8 | 0.00 | 0.00 | 0.00 | 90 | 1014.0 |
| 20260505065444 | 54 | 163 | 4.3 | 8.7 | 0.00 | 0.00 | 0.00 | 89 | 1014.0 |
| 20260505064945 | 54 | 125 | 4.3 | 7.8 | 0.00 | 0.00 | 0.00 | 89 | 1014.0 |
| 20260505064444 | 54 | 199 | 5.2 | 7.8 | 0.00 | 0.00 | 0.00 | 89 | 1014.0 |
| 20260505063944 | 54 | 247 | 3.5 | 8.7 | 0.00 | 0.00 | 0.00 | 89 | 1015.0 |
| 20260505063445 | 54 | 174 | 5.2 | 8.7 | 0.00 | 0.00 | 0.00 | 88 | 1015.0 |
| 20260505062944 | 54 | 196 | 6.1 | 8.7 | 0.00 | 0.00 | 0.00 | 88 | 1015.0 |
| 20260505062446 | 55 | 211 | 4.3 | 12.2 | 0.00 | 0.00 | 0.00 | 88 | 1015.0 |
| 20260505061944 | 55 | 205 | 7.0 | 12.2 | 0.00 | 0.00 | 0.00 | 88 | 1015.0 |
| 20260505061444 | 55 | 202 | 5.2 | 10.4 | 0.00 | 0.00 | 0.00 | 87 | 1016.0 |
| 20260505060944 | 55 | 147 | 6.1 | 9.6 | 0.00 | 0.00 | 0.00 | 87 | 1016.0 |
| 20260505060445 | 55 | 176 | 5.2 | 8.7 | 0.00 | 0.00 | 0.00 | 87 | 1016.0 |
| 20260505055944 | 55 | 152 | 6.1 | 8.7 | 0.00 | 0.00 | 0.00 | 86 | 1016.0 |
| 20260505055445 | 56 | 267 | 6.1 | 12.2 | 0.00 | 0.00 | 0.00 | 86 | 1016.0 |
| 20260505054944 | 56 | 316 | 7.8 | 11.3 | 0.00 | 0.00 | 0.00 | 86 | 1016.0 |
| 20260505054444 | 56 | 293 | 6.1 | 9.6 | 0.00 | 0.00 | 0.00 | 85 | 1016.0 |
| 20260505053944 | 56 | 220 | 6.1 | 10.4 | 0.00 | 0.00 | 0.00 | 85 | 1016.0 |
| 20260505053444 | 56 | 251 | 6.1 | 11.3 | 0.00 | 0.00 | 0.00 | 84 | 1016.0 |
| 20260505052944 | 56 | 254 | 5.2 | 11.3 | 0.00 | 0.00 | 0.00 | 84 | 1017.0 |
| 20260505052445 | 57 | 252 | 7.0 | 11.3 | 0.00 | 0.00 | 0.00 | 84 | 1017.0 |
| 20260505051945 | 57 | 275 | 7.8 | 10.4 | 0.00 | 0.00 | 0.00 | 83 | 1017.0 |
| 20260505051444 | 57 | 247 | 6.1 | 7.8 | 0.00 | 0.00 | 0.00 | 83 | 1017.0 |
| 20260505050944 | 57 | 201 | 7.0 | 11.3 | 0.00 | 0.00 | 0.00 | 82 | 1017.0 |
| 20260505050452 | 57 | 189 | 7.0 | 11.3 | 0.00 | 0.00 | 0.00 | 82 | 1017.0 |
| 20260505041445 | 60 | 221 | 7.8 | 11.3 | 0.00 | 0.00 | 0.00 | 76 | 1018.0 |
| 20260505040945 | 60 | 114 | 7.8 | 11.3 | 0.00 | 0.00 | 0.00 | 75 | 1018.0 |
| 20260505040444 | 61 | 271 | 7.8 | 16.5 | 0.00 | 0.00 | 0.00 | 75 | 1018.0 |
| 20260505035945 | 61 | 228 | 9.6 | 16.5 | 0.00 | 0.00 | 0.00 | 74 | 1018.0 |
| 20260505035444 | 62 | 223 | 6.1 | 13.9 | 0.00 | 0.00 | 0.00 | 73 | 1018.0 |
| 20260505034944 | 62 | 244 | 5.2 | 9.6 | 0.00 | 0.00 | 0.00 | 73 | 1018.0 |
| 20260505034445 | 63 | 225 | 5.2 | 10.4 | 0.00 | 0.00 | 0.00 | 72 | 1018.0 |
| 20260505033944 | 63 | 229 | 6.1 | 11.3 | 0.00 | 0.00 | 0.00 | 71 | 1018.0 |
| 20260505033444 | 63 | 212 | 7.0 | 12.2 | 0.00 | 0.00 | 0.00 | 70 | 1018.0 |
| 20260505032946 | 64 | 258 | 7.0 | 12.2 | 0.00 | 0.00 | 0.00 | 69 | 1018.0 |
| 20260505032444 | 65 | 225 | 6.1 | 12.2 | 0.00 | 0.00 | 0.00 | 68 | 1018.0 |
| 20260505031945 | 65 | 251 | 5.2 | 11.3 | 0.00 | 0.00 | 0.00 | 67 | 1018.0 |
| 20260505031444 | 66 | 243 | 6.1 | 11.3 | 0.00 | 0.00 | 0.00 | 66 | 1018.0 |
| 20260505030944 | 66 | 248 | 7.0 | 11.3 | 0.00 | 0.00 | 0.00 | 65 | 1018.0 |
| 20260505030444 | 67 | 189 | 5.2 | 9.6 | 0.00 | 0.00 | 0.00 | 65 | 1018.0 |
| 20260505025945 | 67 | 259 | 6.1 | 11.3 | 0.00 | 0.00 | 0.00 | 64 | 1018.0 |
| 20260505025446 | 67 | 239 | 7.0 | 11.3 | 0.00 | 0.00 | 0.00 | 63 | 1018.0 |
| 20260505024947 | 68 | 210 | 5.2 | 9.6 | 0.00 | 0.00 | 0.00 | 62 | 1017.0 |
| 20260505024444 | 69 | 248 | 6.1 | 10.4 | 0.00 | 0.00 | 0.00 | 61 | 1017.0 |
| 20260505023944 | 69 | 280 | 7.0 | 10.4 | 0.00 | 0.00 | 0.00 | 61 | 1017.0 |
| 20260505023444 | 70 | 249 | 4.3 | 9.6 | 0.00 | 0.00 | 0.00 | 60 | 1017.0 |
| 20260505022945 | 70 | 214 | 5.2 | 9.6 | 0.00 | 0.00 | 0.00 | 59 | 1017.0 |
| 20260505022446 | 71 | 195 | 7.0 | 11.3 | 0.00 | 0.00 | 0.00 | 58 | 1017.0 |
| 20260505021944 | 72 | 233 | 5.2 | 7.0 | 0.00 | 0.00 | 0.00 | 56 | 1016.0 |
| 20260505021444 | 72 | 196 | 4.3 | 8.7 | 0.00 | 0.00 | 0.00 | 55 | 1016.0 |
| 20260505020944 | 73 | 176 | 4.3 | 7.8 | 0.00 | 0.00 | 0.00 | 55 | 1016.0 |
| 20260505020444 | 73 | 249 | 5.2 | 9.6 | 0.00 | 0.00 | 0.00 | 54 | 1016.0 |
| 20260505015944 | 73 | 165 | 6.1 | 8.7 | 0.00 | 0.00 | 0.00 | 53 | 1017.0 |
| 20260505015444 | 73 | 194 | 6.1 | 9.6 | 0.00 | 0.00 | 0.00 | 52 | 1017.0 |
| 20260505014945 | 74 | 185 | 5.2 | 9.6 | 0.00 | 0.00 | 0.00 | 52 | 1017.0 |
| 20260505014444 | 74 | 191 | 6.1 | 9.6 | 0.00 | 0.00 | 0.00 | 51 | 1016.0 |
| 20260505013945 | 74 | 254 | 6.1 | 9.6 | 0.00 | 0.00 | 0.00 | 50 | 1016.0 |
| 20260505013445 | 75 | 202 | 7.0 | 9.6 | 0.00 | 0.00 | 0.00 | 49 | 1016.0 |
| 20260505012945 | 75 | 196 | 6.1 | 9.6 | 0.00 | 0.00 | 0.00 | 48 | 1016.0 |
| 20260505012444 | 76 | 211 | 4.3 | 9.6 | 0.00 | 0.00 | 0.00 | 48 | 1016.0 |
| 20260505011946 | 76 | 205 | 4.3 | 7.0 | 0.00 | 0.00 | 0.00 | 48 | 1015.0 |
| 20260505011444 | 76 | 231 | 5.2 | 7.8 | 0.00 | 0.00 | 0.00 | 47 | 1015.0 |
| 20260505010944 | 76 | 220 | 6.1 | 7.8 | 0.00 | 0.00 | 0.00 | 46 | 1015.0 |
| 20260505010444 | 76 | 182 | 7.0 | 11.3 | 0.00 | 0.00 | 0.00 | 46 | 1015.0 |
| 20260505005945 | 77 | 259 | 6.1 | 9.6 | 0.00 | 0.00 | 0.00 | 46 | 1015.0 |
| 20260505005444 | 77 | 227 | 6.1 | 10.4 | 0.00 | 0.00 | 0.00 | 46 | 1014.0 |
| 20260505004944 | 77 | 221 | 6.1 | 8.7 | 0.00 | 0.00 | 0.00 | 45 | 1014.0 |
| 20260505004444 | 77 | 204 | 5.2 | 9.6 | 0.00 | 0.00 | 0.00 | 46 | 1014.0 |
| 20260505003944 | 77 | 212 | 7.0 | 9.6 | 0.00 | 0.00 | 0.00 | 45 | 1013.0 |
| 20260505003444 | 78 | 253 | 4.3 | 7.8 | 0.00 | 0.00 | 0.00 | 44 | 1013.0 |
| 20260505002945 | 79 | 239 | 6.1 | 9.6 | 0.00 | 0.00 | 0.00 | 44 | 1013.0 |
| 20260505002445 | 79 | 185 | 4.3 | 7.8 | 0.00 | 0.00 | 0.00 | 43 | 1012.0 |
| 20260505001944 | 79 | 258 | 6.1 | 7.0 | 0.00 | 0.00 | 0.00 | 43 | 1012.0 |
| 20260505001446 | 79 | 214 | 5.2 | 7.8 | 0.00 | 0.00 | 0.00 | 42 | 1011.0 |
| 20260505000944 | 80 | 256 | 5.2 | 7.8 | 0.00 | 0.00 | 0.00 | 40 | 1010.0 |
| 20260505000447 | 81 | 211 | 3.5 | 7.0 | 0.00 | 0.00 | 0.00 | 42 | 1010.0 |
| 20260504235945 | 80 | 246 | 3.5 | 8.7 | 0.00 | 0.00 | 0.00 | 43 | 1010.0 |
| 20260504235445 | 80 | 154 | 3.5 | 7.8 | 0.00 | 0.00 | 0.00 | 43 | 1010.0 |
| 20260504234944 | 81 | 191 | 4.3 | 7.8 | 0.00 | 0.00 | 0.00 | 42 | 1010.0 |
| 20260504234444 | 81 | 251 | 4.3 | 7.0 | 0.00 | 0.00 | 0.00 | 41 | 1010.0 |
| 20260504233945 | 81 | 228 | 4.3 | 7.0 | 0.00 | 0.00 | 0.00 | 41 | 1010.0 |
| 20260504233445 | 81 | 246 | 3.5 | 6.1 | 0.00 | 0.00 | 0.00 | 43 | 1010.0 |
| 20260504232944 | 81 | 220 | 5.2 | 7.8 | 0.00 | 0.00 | 0.00 | 43 | 1010.0 |
| 20260504232444 | 81 | 283 | 4.3 | 10.4 | 0.00 | 0.00 | 0.00 | 42 | 1010.0 |
| 20260504231945 | 81 | 208 | 2.6 | 8.7 | 0.00 | 0.00 | 0.00 | 41 | 1010.0 |
| 20260504231444 | 81 | 241 | 5.2 | 8.7 | 0.00 | 0.00 | 0.00 | 41 | 1010.0 |
| 20260504230944 | 80 | 209 | 5.2 | 7.8 | 0.00 | 0.00 | 0.00 | 41 | 1009.0 |
| 20260504230445 | 81 | 202 | 6.1 | 8.7 | 0.00 | 0.00 | 0.00 | 42 | 1009.0 |
| 20260504225944 | 81 | 209 | 5.2 | 8.7 | 0.00 | 0.00 | 0.00 | 41 | 1009.0 |
| 20260504225445 | 81 | 170 | 4.3 | 7.8 | 0.00 | 0.00 | 0.00 | 40 | 1009.0 |
| 20260504224945 | 80 | 217 | 4.3 | 10.4 | 0.00 | 0.00 | 0.00 | 42 | 1009.0 |
| 20260504224445 | 81 | 193 | 4.3 | 10.4 | 0.00 | 0.00 | 0.00 | 41 | 1009.0 |
| 20260504223944 | 81 | 197 | 4.3 | 9.6 | 0.00 | 0.00 | 0.00 | 42 | 1009.0 |
| 20260504223445 | 81 | 162 | 3.5 | 7.0 | 0.00 | 0.00 | 0.00 | 41 | 1008.0 |
| 20260504222944 | 81 | 350 | 5.2 | 7.8 | 0.00 | 0.00 | 0.00 | 41 | 1008.0 |
| 20260504222445 | 81 | 196 | 2.6 | 7.8 | 0.00 | 0.00 | 0.00 | 41 | 1008.0 |
| 20260504221944 | 81 | 138 | 3.5 | 7.0 | 0.00 | 0.00 | 0.00 | 42 | 1008.0 |
| 20260504221445 | 81 | 255 | 6.1 | 7.8 | 0.00 | 0.00 | 0.00 | 40 | 1008.0 |
| 20260504220944 | 81 | 295 | 4.3 | 7.8 | 0.00 | 0.00 | 0.00 | 41 | 1008.0 |
| 20260504220445 | 80 | 305 | 2.6 | 8.7 | 0.00 | 0.00 | 0.00 | 43 | 1008.0 |
| 20260504215946 | 80 | 193 | 5.2 | 8.7 | 0.00 | 0.00 | 0.00 | 43 | 1008.0 |
| 20260504215445 | 79 | 228 | 5.2 | 8.7 | 0.00 | 0.00 | 0.00 | 44 | 1008.0 |
| 20260504214944 | 79 | 268 | 6.1 | 9.6 | 0.00 | 0.00 | 0.00 | 43 | 1008.0 |
| 20260504214448 | 81 | 171 | 6.1 | 9.6 | 0.00 | 0.00 | 0.00 | 43 | 1008.0 |
| 20260504213945 | 81 | 221 | 2.6 | 7.0 | 0.00 | 0.00 | 0.00 | 43 | 1007.0 |
| 20260504213445 | 80 | 303 | 3.5 | 6.1 | 0.00 | 0.00 | 0.00 | 44 | 1007.0 |
| 20260504212944 | 79 | 257 | 3.5 | 7.0 | 0.00 | 0.00 | 0.00 | 44 | 1007.0 |
| 20260504212444 | 78 | 345 | 6.1 | 9.6 | 0.00 | 0.00 | 0.00 | 44 | 1007.0 |
| 20260504211945 | 78 | 255 | 5.2 | 9.6 | 0.00 | 0.00 | 0.00 | 45 | 1007.0 |
| 20260504211444 | 78 | 155 | 5.2 | 7.8 | 0.00 | 0.00 | 0.00 | 43 | 1007.0 |
| 20260504210945 | 79 | 264 | 2.6 | 7.8 | 0.00 | 0.00 | 0.00 | 42 | 1007.0 |
| 20260504210444 | 79 | 255 | 4.3 | 7.8 | 0.00 | 0.00 | 0.00 | 44 | 1007.0 |
| 20260504205944 | 80 | 180 | 3.5 | 7.0 | 0.00 | 0.00 | 0.00 | 44 | 1007.0 |
| 20260504205448 | 80 | 165 | 3.5 | 7.0 | 0.00 | 0.00 | 0.00 | 43 | 1007.0 |
| 20260504204944 | 79 | 240 | 3.5 | 6.1 | 0.00 | 0.00 | 0.00 | 47 | 1007.0 |
| 20260504204444 | 78 | 141 | 5.2 | 7.8 | 0.00 | 0.00 | 0.00 | 44 | 1007.0 |
| 20260504203945 | 78 | 242 | 6.1 | 7.8 | 0.00 | 0.00 | 0.00 | 46 | 1007.0 |
| 20260504203447 | 79 | 181 | 3.5 | 5.2 | 0.00 | 0.00 | 0.00 | 46 | 1007.0 |
| 20260504202945 | 78 | 198 | 2.6 | 7.8 | 0.00 | 0.00 | 0.00 | 47 | 1007.0 |
| 20260504202444 | 77 | 297 | 5.2 | 7.8 | 0.00 | 0.00 | 0.00 | 48 | 1007.0 |
| 20260504201946 | 77 | 232 | 3.5 | 8.7 | 0.00 | 0.00 | 0.00 | 49 | 1007.0 |
| 20260504201446 | 76 | 263 | 6.1 | 8.7 | 0.00 | 0.00 | 0.00 | 49 | 1007.0 |
| 20260504200944 | 76 | 303 | 4.3 | 8.7 | 0.00 | 0.00 | 0.00 | 50 | 1007.0 |
| 20260504200446 | 76 | 269 | 6.1 | 8.7 | 0.00 | 0.00 | 0.00 | 51 | 1007.0 |
| 20260504195945 | 76 | 198 | 7.0 | 8.7 | 0.00 | 0.00 | 0.00 | 49 | 1006.0 |
| 20260504195449 | 77 | 143 | 4.3 | 7.8 | 0.00 | 0.00 | 0.00 | 49 | 1006.0 |
| 20260504194945 | 77 | 231 | 3.5 | 7.8 | 0.00 | 0.00 | 0.00 | 50 | 1006.0 |
| 20260504194446 | 76 | 198 | 5.2 | 8.7 | 0.00 | 0.00 | 0.00 | 52 | 1006.0 |
| 20260504193945 | 77 | 224 | 4.3 | 7.0 | 0.00 | 0.00 | 0.00 | 50 | 1006.0 |
| 20260504193444 | 76 | 180 | 4.3 | 7.8 | 0.00 | 0.00 | 0.00 | 51 | 1006.0 |
| 20260504192945 | 76 | 216 | 4.3 | 7.8 | 0.00 | 0.00 | 0.00 | 50 | 1006.0 |
| 20260504192444 | 76 | 222 | 6.1 | 7.8 | 0.00 | 0.00 | 0.00 | 50 | 1006.0 |
| 20260504191947 | 76 | 216 | 3.5 | 7.0 | 0.00 | 0.00 | 0.00 | 52 | 1006.0 |
| 20260504191444 | 74 | 194 | 5.2 | 7.8 | 0.00 | 0.00 | 0.00 | 52 | 1006.0 |
| 20260504190945 | 75 | 225 | 4.3 | 8.7 | 0.00 | 0.00 | 0.00 | 53 | 1006.0 |
| 20260504190444 | 74 | 262 | 6.1 | 7.8 | 0.00 | 0.00 | 0.00 | 53 | 1006.0 |
| 20260504185945 | 75 | 259 | 4.3 | 7.8 | 0.00 | 0.00 | 0.00 | 52 | 1006.0 |
| 20260504185445 | 74 | 165 | 6.1 | 7.8 | 0.00 | 0.00 | 0.00 | 52 | 1006.0 |
| 20260504184944 | 75 | 225 | 6.1 | 8.7 | 0.00 | 0.00 | 0.00 | 50 | 1005.0 |
| 20260504184445 | 76 | 227 | 4.3 | 7.0 | 0.00 | 0.00 | 0.00 | 50 | 1005.0 |
| 20260504183946 | 75 | 252 | 5.2 | 7.0 | 0.00 | 0.00 | 0.00 | 50 | 1005.0 |
| 20260504183445 | 75 | 200 | 5.2 | 8.7 | 0.00 | 0.00 | 0.00 | 50 | 1005.0 |
| 20260504182945 | 76 | 151 | 3.5 | 7.0 | 0.00 | 0.00 | 0.00 | 47 | 1005.0 |
| 20260504182445 | 76 | 228 | 5.2 | 7.0 | 0.00 | 0.00 | 0.00 | 48 | 1005.0 |
| 20260504181947 | 75 | 124 | 3.5 | 5.2 | 0.00 | 0.00 | 0.00 | 48 | 1005.0 |
| 20260504181444 | 75 | 119 | 3.5 | 5.2 | 0.00 | 0.00 | 0.00 | 48 | 1005.0 |
| 20260504180947 | 74 | 114 | 3.5 | 6.1 | 0.00 | 0.00 | 0.00 | 49 | 1005.0 |
| 20260504180445 | 74 | 136 | 3.5 | 6.1 | 0.00 | 0.00 | 0.00 | 49 | 1005.0 |
| 20260504175945 | 74 | 157 | 3.5 | 5.2 | 0.00 | 0.00 | 0.00 | 49 | 1005.0 |
| 20260504175444 | 74 | 135 | 2.6 | 4.3 | 0.00 | 0.00 | 0.00 | 50 | 1005.0 |
| 20260504174945 | 73 | 123 | 3.5 | 4.3 | 0.00 | 0.00 | 0.00 | 50 | 1005.0 |
| 20260504174445 | 72 | 140 | 3.5 | 4.3 | 0.00 | 0.00 | 0.00 | 51 | 1005.0 |
| 20260504173944 | 72 | 144 | 3.5 | 5.2 | 0.00 | 0.00 | 0.00 | 51 | 1005.0 |
| 20260504173445 | 73 | 124 | 3.5 | 5.2 | 0.00 | 0.00 | 0.00 | 51 | 1005.0 |
| 20260504172945 | 74 | 111 | 3.5 | 4.3 | 0.00 | 0.00 | 0.00 | 50 | 1006.0 |
| 20260504172445 | 75 | 109 | 2.6 | 4.3 | 0.00 | 0.00 | 0.00 | 49 | 1006.0 |
| 20260504171945 | 74 | 126 | 2.6 | 6.1 | 0.00 | 0.00 | 0.00 | 50 | 1006.0 |
| 20260504171445 | 74 | 193 | 2.6 | 3.5 | 0.00 | 0.00 | 0.00 | 50 | 1006.0 |
| 20260504170946 | 73 | 142 | 2.6 | 4.3 | 0.00 | 0.00 | 0.00 | 52 | 1006.0 |
| 20260504170445 | 72 | 114 | 3.5 | 4.3 | 0.00 | 0.00 | 0.00 | 52 | 1006.0 |
| 20260504150945 | 62 | 113 | 1.7 | 2.6 | 0.00 | 0.00 | 0.00 | 62 | 1008.0 |
| 20260504150446 | 62 | 130 | 1.7 | 2.6 | 0.00 | 0.00 | 0.00 | 64 | 1008.0 |
| 20260504140945 | 55 | 107 | 1.7 | 1.7 | 0.00 | 0.00 | 0.00 | 73 | 1007.0 |
| 20260504140444 | 55 | 88 | 0.0 | 0.0 | 0.00 | 0.00 | 0.00 | 73 | 1006.0 |
| 20260504130444 | 54 | 359 | 0.0 | 0.0 | 0.00 | 0.00 | 0.00 | 69 | 1004.0 |
| 20260504110445 | 55 | 289 | 0.9 | 0.9 | 0.00 | 0.00 | 0.00 | 64 | 1009.0 |